CZ-6A DEB

Satellite information

Favourite Embed

Satellite Type and Status

DEBRISIN ORBIT

Key statistics

Satellite CZ-6A DEB at a glance.

Uptime

1129

Days in orbit

Revolutions

≈ 14.3

Per day

Orbit

SSO

Sun Synchronous Orbit

Inclination

98.6

Latest

Satellite identification and parameters

Extended collection of information and parameters for CZ-6A DEB.

Object identification

Identified? True

Debris? True

Object name: CZ-6A DEB

International designator: 2022-151ADZ

Object number (NORAD): 56601

Object ID (CCSDS): 56601

Country: PEOPLES REPUBLIC OF CHINA (PRC)

Current information (Y/N): Y

RCS size: SMALL

Orbital parameters

Period: 100.411 minutes

Inclination: 98.6134 deg

SMA: 7156.173 km

Apoapsis: 859.175 km

Periapsis: 696.902 km

RAAN: 3.6155 deg

Eccentricy: 0.011338

Argument of periapsis: 231.8058 deg

Mean anomaly: 127.2874 deg

Mean motion: 14.34106805 rev/day

Mean motion (dot): 0.00001141 rev/day2

B* drag term: 0.00039491631 1/REarth

Two-line elements (TLE)

Creation date: Dec. 13, 2025, 5:47 p.m.

Reference frame: TEME

Reference center: EARTH

Epoch: Dec. 13, 2025, 7:16 a.m. UTC

TLE line 0: 0 CZ-6A DEB

TLE line 1: 1 56601U 22151ADZ 25347.30321836 .00001141 00000-0 39492-3 0 9993

TLE line 2: 2 56601 98.6134 3.6155 0113380 231.8058 127.2874 14.34106805138021

Live tracking on map

Real-time ground track for satellite CZ-6A DEB.

In-orbit conjunctions

A list of the most updated potential collisions computed for object CZ-6A DEB.

Target Orbit TCA Probability of collision Miss distance Type
CZ-2C R/B SSO 2025-03-04 13:01:00 0.0002134461 278.0 (m) ROCKET BODY
CZ-6 R/B LEO 2024-12-09 04:54:12 0.0005690152 108.0 (m) ROCKET BODY

Associated space launch

Chinese satellite reported for atmospheric/ocean/environmental/spatial parameter research purposes, details TBD.

CZ-6A DEB was lifted into orbit during the mission ‘Long March 6A | Yunhai 3’, on board a Long March 6A space rocket.

The launch took place on Nov. 11, 2022, 10:52 p.m. from Launch Complex 9A.

For more information about the launch, click the button.

Launch to space Long March 6A | Yunhai 3
Long March 6A | Yunhai 3

Agency: N/A

Status: Launch Successful

Launch date: Nov. 11, 2022, 10:52 p.m. UTC

Rocket: Long March 6A

Launch pad: Launch Complex 9A

Location: Taiyuan Satellite Launch Center, People's Republic of China

...

Latest news about this satellite

There are no fresh news available about this satellite. Check back as we update our databases every day.


Newsletter sign-up

Weekly statistics, charts and insights to help you stay on top of the space industry.